Regional Weather Roundup
Issued by NWS

Home | Current Version | Previous Version | Graphics & Text | Print | Product List | Glossary On
Versions: 1 2 3 4 5 6 7 8 9 10 11 12 13 14 15 16 17 18 19 20 21 22 23 24 25 26 27 28 29 30 31 32 33 34 35 36 37 38 39 40 41 42 43 44 45 46 47 48 49 50
000
ASUS43 KOAX 050510
RWRNE

WEATHER ROUNDUP FOR NEBRASKA
NATIONAL WEATHER SERVICE OMAHA NE
1200 AM CDT TUE MAY 05 2015

NOTES: SATELLITE DATA IS BEING USED TO AUGMENT CLOUD COVER ABOVE
       12000 FEET.
       "FAIR" INDICATES FEW OR NO CLOUDS BELOW 12,000 FEET WITH NO
       SIGNIFICANT WEATHER AND/OR OBSTRUCTIONS TO VISIBILITY.

  * THESE STATIONS DO NOT REPORT WEATHER SUCH AS RAIN...SNOW OR FOG.

NEZ001>004-019>022-054>056-050600-
NEBRASKA PANHANDLE

CITY           SKY/WX    TMP DP  RH WIND       PRES   REMARKS
SCOTTSBLUFF    CLOUDY    51  40  65 SE15      30.11S
ALLIANCE       CLOUDY    50  38  63 SE10      30.11F
CHADRON        MOCLDY    42  39  89 CALM      30.11S
KIMBALL        CLOUDY    45  44  97 SE7       30.09F
SIDNEY         CLOUDY    46  42  86 E10       30.12F
$$

NEZ057>060-069>072-079>082-050600-
SOUTHWEST NEBRASKA

CITY           SKY/WX    TMP DP  RH WIND       PRES   REMARKS
NORTH PLATTE   CLOUDY    51  48  89 E8        30.10F
IMPERIAL       CLOUDY    49  47  93 SE5       30.11F FOG
LEXINGTON      FOG       54  52  95 E5        30.11R VSB 1/2
MCCOOK         CLOUDY    52  51  97 CALM      30.09F FOG
OGALLALA       CLOUDY    50  46  86 E6        30.11F
$$

NEZ005>010-023>029-035>040-094-050600-
NORTH CENTRAL NEBRASKA

CITY           SKY/WX    TMP DP  RH WIND       PRES   REMARKS
VALENTINE      PTCLDY    52  36  54 SE5       30.12S
AINSWORTH      PTCLDY    51  39  63 CALM      30.12F
BROKEN BOW     CLOUDY    54  51  90 E5        30.09F
O`NEILL        MOCLDY    52  47  81 CALM      30.13F
ORD            CLOUDY    54  50  86 E7        30.10F
THEDFORD       MOCLDY    54  43  67 E3        30.12F
$$

NEZ041-046>049-061>064-073>077-083>087-050600-
SOUTH CENTRAL NEBRASKA

CITY           SKY/WX    TMP DP  RH WIND       PRES   REMARKS
GRAND ISLAND   LGT RAIN  54  53  97 NE10      30.09F VSB 1
AURORA         FOG       55  55 100 NE10      30.09F VSB 1
HASTINGS       FOG       55  54  96 NE8       30.09S VSB 1/2
HEBRON         DRIZZLE   62  59  91 E8        30.05F
HOLDREGE       FOG       54  53  96 E6        30.09S VSB 3/4
KEARNEY *      CLOUDY    54  52  94 E9        30.10S VSB 1
YORK           CLOUDY    57  57 100 NE6       30.09S FOG
$$

NEZ011>018-030>034-042>045-050600-
NORTHEAST NEBRASKA

CITY           SKY/WX    TMP DP  RH WIND       PRES   REMARKS
NORFOLK        CLOUDY    56  51  84 E5        30.11F
ALBION         CLOUDY    55  51  87 NE6       30.11F
BLAIR          CLOUDY    57  54  90 E7        30.09S
COLUMBUS *     CLOUDY    55  50  82 NE8       30.12F
FREMONT        CLOUDY    59  57  92 CALM      30.11S
TEKAMAH        LGT RAIN  57  55  93 N9        30.11R
WAYNE          CLOUDY    56  51  85 N5        30.13F
$$

NEZ050>053-065>068-078-088>093-050600-
SOUTHEAST NEBRASKA

CITY           SKY/WX    TMP DP  RH WIND       PRES   REMARKS
LINCOLN        LGT RAIN  60  58  92 N3        30.08F FOG
OMAHA EPPLEY   CLOUDY    60  56  86 E6        30.09R
BEATRICE       CLOUDY    61  59  94 SE10      30.08F
FALLS CITY     RAIN      62  62 100 S9        30.10S
NEBRASKA CITY  RAIN      62  62 100 S15       30.08S
PLATTSMOUTH    CLOUDY    62  60  93 CALM      30.09S FOG
$$

NEZ044-045-051>053-067-050600-
OMAHA AREA

CITY           SKY/WX    TMP DP  RH WIND       PRES   REMARKS
OMAHA EPPLEY   CLOUDY    60  56  86 E6        30.09R
BLAIR          CLOUDY    57  54  90 E7        30.09S
FREMONT        CLOUDY    59  57  92 CALM      30.11S
MILLARD        CLOUDY    61  57  86 CALM      30.09R
OFFUTT AFB     CLOUDY    61  57  88 NE3       30.08S
PLATTSMOUTH    CLOUDY    62  60  93 CALM      30.09S FOG
$$


USA.gov is the U.S. government's official web portal to all federal, state and local government web resources and services.